Time,TemperatureF,DewpointF,PressureIn,WindDirection,WindDirectionDegrees,WindSpeedMPH,WindSpeedGustMPH,Humidity,HourlyPrecipIn,Conditions,Clouds,dailyrainin,SoftwareType,DateUTC
2013-06-30 00:02:00,80.0,46.0,-100.00,SSE,153,12.0,18.0,30,0.00,,,0.00,,2013-06-30 07:02:00,
2013-06-30 00:12:00,80.0,46.0,-100.00,SSE,153,12.0,18.0,30,0.00,,,0.00,,2013-06-30 07:12:00,
2013-06-30 00:44:00,80.0,44.0,-100.00,South,176,7.0,16.0,28,0.00,,,0.00,,2013-06-30 07:44:00,
2013-06-30 00:53:00,80.0,44.0,-100.00,South,176,7.0,16.0,28,0.00,,,0.00,,2013-06-30 07:53:00,
2013-06-30 01:02:00,80.0,44.0,-100.00,South,176,7.0,16.0,28,0.00,,,0.00,,2013-06-30 08:02:00,
2013-06-30 01:11:00,80.0,44.0,-100.00,South,176,7.0,16.0,28,0.00,,,0.00,,2013-06-30 08:11:00,
2013-06-30 01:42:00,79.0,44.0,-100.00,South,188,4.0,10.0,29,0.00,,,0.00,,2013-06-30 08:42:00,
2013-06-30 01:53:00,79.0,44.0,-100.00,South,188,4.0,10.0,29,0.00,,,0.00,,2013-06-30 08:53:00,
2013-06-30 02:01:00,79.0,44.0,-100.00,South,188,4.0,10.0,29,0.00,,,0.00,,2013-06-30 09:01:00,
2013-06-30 02:11:00,79.0,44.0,-100.00,South,188,4.0,10.0,29,0.00,,,0.00,,2013-06-30 09:11:00,
2013-06-30 02:43:00,78.0,44.0,-100.00,South,179,6.0,12.0,30,0.00,,,0.00,,2013-06-30 09:43:00,
2013-06-30 02:53:00,78.0,44.0,-100.00,South,179,6.0,12.0,30,0.00,,,0.00,,2013-06-30 09:53:00,
2013-06-30 03:02:00,78.0,44.0,-100.00,South,179,6.0,12.0,30,0.00,,,0.00,,2013-06-30 10:02:00,
2013-06-30 03:11:00,78.0,44.0,-100.00,South,179,6.0,12.0,30,0.00,,,0.00,,2013-06-30 10:11:00,
2013-06-30 03:43:00,75.0,44.0,-100.00,South,175,4.0,8.0,33,0.00,,,0.00,,2013-06-30 10:43:00,
2013-06-30 03:53:00,75.0,44.0,-100.00,South,175,4.0,8.0,33,0.00,,,0.00,,2013-06-30 10:53:00,
2013-06-30 04:02:00,75.0,44.0,-100.00,South,175,4.0,8.0,33,0.00,,,0.00,,2013-06-30 11:02:00,
2013-06-30 04:11:00,75.0,44.0,-100.00,South,175,4.0,8.0,33,0.00,,,0.00,,2013-06-30 11:11:00,
2013-06-30 04:43:00,75.0,43.0,-100.00,SSE,164,5.0,9.0,32,0.00,,,0.00,,2013-06-30 11:43:00,
2013-06-30 04:53:00,75.0,43.0,-100.00,SSE,164,5.0,9.0,32,0.00,,,0.00,,2013-06-30 11:53:00,
2013-06-30 05:01:00,75.0,43.0,-100.00,SSE,164,5.0,9.0,32,0.00,,,0.00,,2013-06-30 12:01:00,
2013-06-30 05:11:00,75.0,43.0,-100.00,SSE,164,5.0,9.0,32,0.00,,,0.00,,2013-06-30 12:11:00,
2013-06-30 05:43:00,75.0,43.0,-100.00,South,169,5.0,10.0,32,0.00,,,0.00,,2013-06-30 12:43:00,
2013-06-30 05:52:00,75.0,43.0,-100.00,South,169,5.0,10.0,32,0.00,,,0.00,,2013-06-30 12:52:00,
2013-06-30 06:02:00,75.0,43.0,-100.00,South,169,5.0,10.0,32,0.00,,,0.00,,2013-06-30 13:02:00,
2013-06-30 06:44:00,73.0,44.0,-100.00,South,171,4.0,8.0,35,0.00,,,0.00,,2013-06-30 13:44:00,
2013-06-30 06:53:00,73.0,44.0,-100.00,South,171,4.0,8.0,35,0.00,,,0.00,,2013-06-30 13:53:00,
2013-06-30 07:02:00,73.0,44.0,-100.00,South,171,4.0,8.0,35,0.00,,,0.00,,2013-06-30 14:02:00,
2013-06-30 07:11:00,73.0,44.0,-100.00,South,171,4.0,8.0,35,0.00,,,0.00,,2013-06-30 14:11:00,
2013-06-30 07:44:00,74.0,45.0,-100.00,South,174,4.0,8.0,35,0.00,,,0.00,,2013-06-30 14:44:00,
2013-06-30 07:52:00,74.0,45.0,-100.00,South,174,4.0,8.0,35,0.00,,,0.00,,2013-06-30 14:52:00,
2013-06-30 08:02:00,74.0,45.0,-100.00,South,174,4.0,8.0,35,0.00,,,0.00,,2013-06-30 15:02:00,
2013-06-30 08:12:00,74.0,45.0,-100.00,South,174,4.0,8.0,35,0.00,,,0.00,,2013-06-30 15:12:00,
2013-06-30 08:44:00,77.0,46.0,-100.00,SSW,203,4.0,8.0,33,0.00,,,0.00,,2013-06-30 15:44:00,
2013-06-30 08:53:00,77.0,46.0,-100.00,SSW,203,4.0,8.0,33,0.00,,,0.00,,2013-06-30 15:53:00,
2013-06-30 09:01:00,77.0,46.0,-100.00,SSW,203,4.0,8.0,33,0.00,,,0.00,,2013-06-30 16:01:00,
2013-06-30 09:44:00,82.0,47.0,-100.00,SW,224,2.0,7.0,30,0.00,,,0.00,,2013-06-30 16:44:00,
2013-06-30 09:53:00,82.0,47.0,-100.00,SW,224,2.0,7.0,30,0.00,,,0.00,,2013-06-30 16:53:00,
2013-06-30 10:01:00,82.0,47.0,-100.00,SW,224,2.0,7.0,30,0.00,,,0.00,,2013-06-30 17:01:00,
2013-06-30 10:11:00,82.0,47.0,-100.00,SW,224,2.0,7.0,30,0.00,,,0.00,,2013-06-30 17:11:00,
2013-06-30 10:43:00,83.0,51.0,-100.00,WSW,246,5.0,8.0,33,0.00,,,0.00,,2013-06-30 17:43:00,
2013-06-30 10:52:00,83.0,51.0,-100.00,WSW,246,5.0,8.0,33,0.00,,,0.00,,2013-06-30 17:52:00,
2013-06-30 11:01:00,83.0,51.0,-100.00,WSW,246,5.0,8.0,33,0.00,,,0.00,,2013-06-30 18:01:00,
2013-06-30 11:12:00,83.0,51.0,-100.00,WSW,246,5.0,8.0,33,0.00,,,0.00,,2013-06-30 18:12:00,
2013-06-30 11:43:00,83.0,48.0,-100.00,WSW,238,11.0,37.0,30,0.00,,,0.00,,2013-06-30 18:43:00,
2013-06-30 11:53:00,83.0,48.0,-100.00,WSW,238,11.0,37.0,30,0.00,,,0.00,,2013-06-30 18:53:00,
2013-06-30 12:01:00,83.0,48.0,-100.00,WSW,238,11.0,37.0,30,0.00,,,0.00,,2013-06-30 19:01:00,
2013-06-30 12:11:00,83.0,48.0,-100.00,WSW,238,11.0,37.0,30,0.00,,,0.00,,2013-06-30 19:11:00,
2013-06-30 12:43:00,86.0,50.0,-100.00,WSW,251,11.0,17.0,29,0.00,,,0.00,,2013-06-30 19:43:00,
2013-06-30 12:53:00,86.0,50.0,-100.00,WSW,251,11.0,17.0,29,0.00,,,0.00,,2013-06-30 19:53:00,
2013-06-30 13:01:00,86.0,50.0,-100.00,WSW,251,11.0,17.0,29,0.00,,,0.00,,2013-06-30 20:01:00,
2013-06-30 13:11:00,86.0,50.0,-100.00,WSW,251,11.0,17.0,29,0.00,,,0.00,,2013-06-30 20:11:00,
2013-06-30 13:42:00,87.0,50.0,-100.00,WSW,244,12.0,18.0,28,0.00,,,0.00,,2013-06-30 20:42:00,
2013-06-30 13:52:00,87.0,50.0,-100.00,WSW,244,12.0,18.0,28,0.00,,,0.00,,2013-06-30 20:52:00,
2013-06-30 14:01:00,87.0,50.0,-100.00,WSW,244,12.0,18.0,28,0.00,,,0.00,,2013-06-30 21:01:00,
2013-06-30 14:11:00,87.0,50.0,-100.00,WSW,244,12.0,18.0,28,0.00,,,0.00,,2013-06-30 21:11:00,
2013-06-30 14:43:00,89.0,52.0,-100.00,WSW,251,14.0,20.0,28,0.00,,,0.00,,2013-06-30 21:43:00,
2013-06-30 14:53:00,89.0,52.0,-100.00,WSW,251,14.0,20.0,28,0.00,,,0.00,,2013-06-30 21:53:00,
2013-06-30 15:01:00,89.0,52.0,-100.00,WSW,251,14.0,20.0,28,0.00,,,0.00,,2013-06-30 22:01:00,
2013-06-30 15:11:00,89.0,52.0,-100.00,WSW,251,14.0,20.0,28,0.00,,,0.00,,2013-06-30 22:11:00,
2013-06-30 15:43:00,91.0,49.0,-100.00,WSW,258,13.0,24.0,24,0.00,,,0.00,,2013-06-30 22:43:00,
2013-06-30 15:53:00,91.0,49.0,-100.00,WSW,258,13.0,24.0,24,0.00,,,0.00,,2013-06-30 22:53:00,
2013-06-30 16:01:00,91.0,49.0,-100.00,WSW,258,13.0,24.0,24,0.00,,,0.00,,2013-06-30 23:01:00,
2013-06-30 16:11:00,91.0,49.0,-100.00,WSW,258,13.0,24.0,24,0.00,,,0.00,,2013-06-30 23:11:00,
2013-06-30 16:44:00,91.0,46.0,-100.00,WSW,246,13.0,22.0,21,0.00,,,0.00,,2013-06-30 23:44:00,
2013-06-30 16:53:00,91.0,46.0,-100.00,WSW,246,13.0,22.0,21,0.00,,,0.00,,2013-06-30 23:53:00,
2013-06-30 17:01:00,91.0,46.0,-100.00,WSW,246,13.0,22.0,21,0.00,,,0.00,,2013-07-01 00:01:00,
2013-06-30 17:11:00,91.0,46.0,-100.00,WSW,246,13.0,22.0,21,0.00,,,0.00,,2013-07-01 00:11:00,
2013-06-30 17:42:00,90.0,47.0,-100.00,WSW,242,14.0,22.0,23,0.00,,,-99.99,,2013-07-01 00:42:00,
2013-06-30 17:52:00,90.0,47.0,-100.00,WSW,242,14.0,22.0,23,0.00,,,-99.99,,2013-07-01 00:52:00,
2013-06-30 18:01:00,90.0,47.0,-100.00,WSW,242,14.0,22.0,23,0.00,,,-99.99,,2013-07-01 01:01:00,
2013-06-30 18:11:00,90.0,47.0,-100.00,WSW,242,14.0,22.0,23,0.00,,,-99.99,,2013-07-01 01:11:00,
2013-06-30 18:43:00,86.0,50.0,-100.00,WSW,249,13.0,19.0,29,-99.99,,,-99.99,,2013-07-01 01:43:00,
2013-06-30 18:52:00,86.0,50.0,-100.00,WSW,249,13.0,19.0,29,-99.99,,,-99.99,,2013-07-01 01:52:00,
2013-06-30 19:02:00,86.0,50.0,-100.00,WSW,249,13.0,19.0,29,-99.99,,,-99.99,,2013-07-01 02:02:00,
2013-06-30 19:11:00,86.0,50.0,-100.00,WSW,249,13.0,19.0,29,-99.99,,,-99.99,,2013-07-01 02:11:00,
2013-06-30 19:44:00,85.0,45.0,-100.00,WSW,248,8.0,17.0,25,0.00,,,-99.99,,2013-07-01 02:44:00,
2013-06-30 19:54:00,85.0,45.0,-100.00,WSW,248,8.0,17.0,25,0.00,,,-99.99,,2013-07-01 02:54:00,
2013-06-30 20:01:00,85.0,45.0,-100.00,WSW,248,8.0,17.0,25,0.00,,,-99.99,,2013-07-01 03:01:00,
2013-06-30 20:11:00,85.0,45.0,-100.00,WSW,248,8.0,17.0,25,0.00,,,-99.99,,2013-07-01 03:11:00,
2013-06-30 20:43:00,82.0,48.0,-100.00,SSW,211,5.0,10.0,31,0.00,,,-99.99,,2013-07-01 03:43:00,
2013-06-30 20:52:00,82.0,48.0,-100.00,SSW,211,5.0,10.0,31,0.00,,,-99.99,,2013-07-01 03:52:00,
2013-06-30 21:01:00,82.0,48.0,-100.00,SSW,211,5.0,10.0,31,0.00,,,-99.99,,2013-07-01 04:01:00,
2013-06-30 21:11:00,82.0,48.0,-100.00,SSW,211,5.0,10.0,31,0.00,,,-99.99,,2013-07-01 04:11:00,
2013-06-30 21:43:00,77.0,47.0,-100.00,SSE,150,12.0,22.0,35,0.00,,,-99.99,,2013-07-01 04:43:00,
2013-06-30 21:53:00,77.0,47.0,-100.00,SSE,150,12.0,22.0,35,0.00,,,-99.99,,2013-07-01 04:53:00,
2013-06-30 22:01:00,77.0,47.0,-100.00,SSE,150,12.0,22.0,35,0.00,,,-99.99,,2013-07-01 05:01:00,
2013-06-30 22:11:00,77.0,47.0,-100.00,SSE,150,12.0,22.0,35,0.00,,,-99.99,,2013-07-01 05:11:00,
2013-06-30 22:42:00,75.0,50.0,-100.00,South,173,10.0,19.0,41,0.00,,,-99.99,,2013-07-01 05:42:00,
2013-06-30 22:52:00,75.0,50.0,-100.00,South,173,10.0,19.0,41,0.00,,,-99.99,,2013-07-01 05:52:00,
2013-06-30 23:02:00,75.0,50.0,-100.00,South,173,10.0,19.0,41,0.00,,,-99.99,,2013-07-01 06:02:00,
2013-06-30 23:12:00,75.0,50.0,-100.00,South,173,10.0,19.0,41,0.00,,,-99.99,,2013-07-01 06:12:00,
2013-06-30 23:43:00,73.0,47.0,-100.00,South,169,7.0,17.0,40,0.00,,,-99.99,,2013-07-01 06:43:00,
2013-06-30 23:53:00,73.0,47.0,-100.00,South,169,7.0,17.0,40,0.00,,,-99.99,,2013-07-01 06:53:00,